Location: Unspecified
(33.6682°S, 0.0000°E)
Time: 01:24:53
(UTC+00:00)

Tiros 1 despin weight - Pass Details

Date: 18 June 2019
Orbit: 594 x 643 km, 48.2° (Epoch: 14 October)

Event Time Altitude Azimuth Distance (km) Brightness Sun altitude
Rises 15:48:50 0° 232° (SW) 2,972 ? 11.3°
Reaches altitude 10° 15:52:17 10° 207° (SSW) 2,061 ? 10.8°
Maximum altitude 15:54:49 14° 175° (S) 1,799 ? 10.4°
Drops below altitude 10° 15:57:20 10° 142° (SE) 2,055 ? 9.9°
Sets 16:00:45 0° 117° (ESE) 2,957 ? 9.4°
